Other Public Products
Issued by NWS Grand Forks, ND

Home | Current Version | Previous Version | Graphics & Text | Print | Product List | Glossary On
Versions: 1 2 3 4 5 6 7 8 9 10 11 12 13 14 15 16 17 18 19 20 21 22 23 24 25 26 27 28 29 30 31 32 33 34 35 36 37 38 39 40 41 42 43 44 45 46 47 48 49 50
524
FPUS83 KFGF 251031
OPUFGF
PRAIRIE TO PINES WEATHER ROUNDUP
NATIONAL WEATHER SERVICE EASTERN NORTH DAKOTA/GRAND FORKS ND
500 AM CDT SUN SEP 25 2016

 **SATELLITE DATA USED TO AUGMENT SKY COVER AT AUTOMATED STATIONS**
 *****  WEATHER ACROSS EASTERN NORTH DAKOTA  *****

CITY           SKY/WX    TMP DP  RH WIND       PRES   REMARKS
GRAND FORKS    CLEAR     58  53  84 S12       29.70F
GRAND FORKS AF CLEAR     56  51  84 S13       29.71F
GRAND CITY NWS NOT AVBL
BUXTON           N/A     60  58  95 S10         N/A
DEVILS LAKE    CLOUDY    55  55 100 W17       29.69F
FARGO          CLEAR     56  50  80 S9        29.77F
WAHPETON ARPT  SUNNY     52  46  82 S7        29.81F
$$

 *****  WEATHER ACROSS CENTRAL AND WESTERN NORTH DAKOTA  *****

CITY           SKY/WX    TMP DP  RH WIND       PRES   REMARKS
JAMESTOWN      PTCLDY    46  45  96 S3        29.75S
BISMARCK       CLOUDY    52  49  89 NW24G37   29.88R
MINOT          RAIN      52  50  93 W22G33    29.86R FOG
MINOT AFB      DRIZZLE   50  48  93 NW23G35   29.83R
GARRISON         N/A     50  50 100 NW24G36   29.87R
WILLISTON      PTCLDY    49  42  77 NW21G31   30.04R
DICKINSON      CLOUDY    48  45  89 NW26G33   30.01R
HETTINGER      CLOUDY    49  44  83 NW22G33   30.05R
$$

 *****  OTHER OBSERVATIONS NORTHEAST NORTH DAKOTA  *****

CITY           SKY/WX    TMP DP  RH WIND       PRES   REMARKS
WALHALLA       FAIR      59  55  88 SW6       29.67S
LANGDON        FAIR      54  54 100 NW5       29.69S
CAVALIER       FAIR      57  55  94 S6        29.67F
GRAFTON        FAIR      57  57 100 S9        29.70S
CANDO          LGT RAIN  54  54 100 N13       29.75R
FORT TOTTEN      N/A     57  57 100 NW7       29.95
ROLLA          CLOUDY    50  50 100 NW20G28   29.74R
RUGBY          FAIR      52  50  93 NW23G31   29.76R
 ***** THE ABOVE OBSERVATIONS ARE NON NWS ARE NOT QUALITY
        CONTROLLED AND MAY MIS-REPORT RAIN FOR SNOW...
$$

 *****  OTHER OBSERVATIONS SOUTHEAST NORTH DAKOTA *****

CITY           SKY/WX    TMP DP  RH WIND       PRES   REMARKS
COOPERSTOWN    FAIR      50  48  93 S10       29.74F
VALLEY CITY    FAIR      48  48 100 S12       29.77S
OAKES          NOT AVBL
GWINNER        CLOUDY    54  46  76 S12       29.78F
SHEYENNE NWR     N/A     51  46  83 S7        29.95S
BUFFALO          N/A     51  46  80 S6          N/A
WYNDMERE         N/A     52  48  87 S5          N/A
 ***** THE ABOVE OBSERVATIONS ARE NON NWS ARE NOT QUALITY
       CONTROLLED AND MAY MIS-REPORT RAIN FOR SNOW...
$$

  *****  WEATHER ACROSS NORTHERN MINNESOTA  *****

CITY           SKY/WX    TMP DP  RH WIND       PRES   REMARKS
FLAG ISLAND    CLOUDY    63  61  94 S15       29.74F
WARROAD        CLOUDY    64  61  88 S12       29.75F
ROSEAU         CLOUDY    64  61  88 S8        29.73F
HALLOCK        CLEAR     63  63 100 S12       29.68F
THF RVR FALLS  PTCLDY    63  61  93 S9        29.75F
HALSTAD          N/A     55  52  88 S12         N/A
FOSSTON        PTCLDY    63  61  94 S10       29.77F
BAUDETTE       CLOUDY    63  62  97 SE6       29.78F
WASKISH        CLOUDY    64  63  94 CALM      29.78F
CROOKSTON      CLEAR     61  55  82 S14G22    29.73F
$$
  *****  WEATHER ACROSS CENTRAL AND WEST MINNESOTA  *****

CITY           SKY/WX    TMP DP  RH WIND       PRES   REMARKS
BEMIDJI        LGT RAIN  64  64  98 S8        29.78F
PARK RAPIDS    CLOUDY    66  63  90 S9        29.79F
WADENA         CLOUDY    64  64 100 SW8       29.81F
DETROIT LAKES  PTCLDY    59  52  77 SW10      29.81S
MOORHEAD       CLEAR     55  50  82 S8        29.80S
FERGUS FALLS   PTCLDY    55  48  76 SW7       29.85S
ELBOW LAKE     FAIR      52  49  89 W7        29.86R
MORRIS MN      PTCLDY    55  50  82 SW7       29.86S
STAPLES        DRIZZLE   64  64 100 S6        29.82S
WHEATON        CLEAR     54  48  82 S7        29.86S
$$
  *****  WEATHER ELSEWHERE ACROSS MINNESOTA  *****

CITY           SKY/WX    TMP DP  RH WIND       PRES   REMARKS
DULUTH         CLOUDY    60  59  96 SE12      29.92F
INTRNTL FALLS  LGT RAIN  62  60  93 SE8G17    29.82F
ELY            CLOUDY    59  57  94 S8        29.91F
CLOQUET        CLOUDY    61  59  94 SE6       29.90F FOG
BRAINERD       LGT RAIN  65  64  97 S9        29.82F FOG
HIBBING        LGT RAIN  60  60 100 SE10      29.88F FOG
ALEXANDRIA     CLOUDY    59  54  83 W10       29.87R
SAINT CLOUD    LGT RAIN  67  67 100 S8        29.85S
MINNEAPOLIS    CLOUDY    68  65  90 SE9       29.89F FOG
$$

  *****  WEATHER ACROSS SOUTH DAKOTA  *****

CITY           SKY/WX    TMP DP  RH WIND       PRES   REMARKS
SIOUX FALLS    CLEAR     55  46  71 VRB7      29.98R
BROOKINGS      CLEAR     51  45  79 SW10      29.93F
WATERTOWN      CLEAR     52  46  80 SW13      29.89S
HURON          MOCLDY    55  48  77 SW10      29.92S
SISSETON         N/A     55  46  71 SW13      29.82R
ABERDEEN       CLOUDY    57  50  77 SW18G28   29.80F
MITCHELL       CLEAR     55  45  68 W13       29.98R
PIERRE         CLOUDY    57  43  59 NW35G46   29.96R
MOBRIDGE       CLOUDY    56  47  71 NW29G43   29.85R
RAPID CITY     PTCLDY    52  40  63 NW30G38   30.17S
$$

  *****  SOME WEATHER IN NEARBY STATES *****

CITY           SKY/WX    TMP DP  RH WIND       PRES   REMARKS
GLASGOW MT     CLEAR     40  35  83 W14       30.21R
GREAT FALLS MT CLEAR     39  34  82 SW12      30.32S
CHEYENNE WY    CLEAR     43  32  65 NW12      30.38R
SCOTTSBLUFF NE CLEAR     42  38  85 NW8       30.31R
OMAHA NE       CLOUDY    62  52  69 NW14G24   30.03R
DES MOINES IA  CLOUDY    69  67  93 SW6       29.96R
DAVENPORT IA   PTCLDY    67  65  93 SE7       30.02F
CHICAGO IL     PTCLDY    65  59  81 SE10      30.09F
EAU CLAIRE WI  CLOUDY    65  62  90 SE7       29.97F
LA CROSSE WI   CLOUDY    68  64  87 S10       29.97F
$$

  *****  SOME NATIONAL WEATHER *****

CITY           SKY/WX    TMP DP  RH WIND       PRES   REMARKS
LA GUARDIA NY  CLEAR     59  43  55 N5        30.17R
RALEIGH NC     CLOUDY    72  68  87 E8        30.12R
ATLANTA GA     PTCLDY    73  66  78 CALM      30.08R
NEW ORLEANS LA PTCLDY    77  74  90 CALM      30.02R
OKLAHOMA CITY  LGT RAIN  68  67  96 E7        29.97F
ALBUQUERQUE NM PTCLDY    53  34  48 N8        30.24R
SALT LAKE CITY CLEAR     48  42  80 SE7       30.41S
LOS ANGELES CA CLEAR     66  51  58 NE6       29.98S
BOISE ID       CLEAR     47  36  65 SE5       30.40S
SEATTLE WA     CLOUDY    60  49  66 CALM      30.39F
$$

*** WEATHER ACROSS MANITOBA...SASKATCHEWAN AND ONTARIO ***
                ***ONTARIO***

CITY           SKY/WX    TMP DP  RH WIND       PRES   REMARKS
GERALDTON      CLOUDY    54  50  87 SE6       30.10F
THUNDER BAY    MOCLDY    55  54  94 E5        30.01F
SIOUX LOOKOUT  LGT RAIN  57  54  88 SE10      29.87F
TORONTO        PTCLDY    48  39  71 NE5       30.24F
BIG TROUT LK   CLOUDY    52  45  76 SE13G21   29.95S
PICKLE LAKE    NOT AVBL
DRYDEN         CLOUDY    59  57  94 SE10      29.84F
KENORA         DRIZZLE   63  61  94 S13G20    29.78F FOG
$$
                *** MANITOBA***

CITY           SKY/WX    TMP DP  RH WIND       PRES   REMARKS
BRANDON        LGT RAIN  52  50  93 NW13G20   29.74R
DAUPHIN        CLOUDY    52  50  93 W9        29.77R
ISLAND LAKE    LGT RAIN  55  55 100 SE10G17   29.71F
PILOT MOUND      N/A     55  54  94 W6          N/A
THE PAS        CLOUDY    52  48  87 NW14      29.79S
THOMPSON       LGT RAIN  50  50 100 N3        29.70S
WINNIPEG       CLOUDY    66  64  94 S14G21    29.64F
LYNN LAKE      CLOUDY    48  48 100 NW6       29.75F
CHURCHILL      CLOUDY    48  45  87 SE12G17   29.85F
GILLAM         CLOUDY    50  45  81 E3        29.77F
$$
                ***SASKATCHEWAN***

CITY           SKY/WX    TMP DP  RH WIND       PRES   REMARKS
ESTEVAN        NOT AVBL
KINDERSLEY     CLEAR     39  32  75 NW7       30.20R
LLOYDMINSTER   CLEAR     41  32  70 NW9       30.15S
PRINCE ALBERT  PTCLDY    43  37  81 NW12      29.99R
REGINA         PTCLDY    45  39  81 NW15G22   30.05R
YORKTON        CLOUDY    50  46  87 NW17G25   29.89R   C1F1C2F2C3F3C4F4C5F5C6F6C7F7C8F8C9F9CaFaCbFbCcFcCdFdCe!



USA.gov is the U.S. government's official web portal to all federal, state and local government web resources and services.